[[{"header":{"parameterUnit":"m.s-1","parameterCategory":1,"la1":30.2991,"la2":30.254,"lo1":-89.0895,"lo2":-89.0444,"dx":0.0017,"dy":0.0017,"nx":28,"ny":28,"refTime":"2022-12-02T09:00:00:Z","depth":0,"parameterNumber":2,"parameterNumberName":"U-component_of_WINDS"},"data":[0,0,0,0,0,0,0,0,0,0,0,0,0,0,0,0,0,0,0,0,0,0,0,0,0,0,0,0,0,0,0,0,0,0,0,0,0,0,0,0,0,0,0,0,0,0,0,0,0,0,0,0,0,0,0,0,0,0,-0.7249,-0.7249,0,-0.7294,-0.7295,-0.7296,-0.7325,-0.7325,-0.7325,-0.7325,-0.7374,-0.7375,-0.7376,0,0,0,0,0,0,0,0,0,0,0,0,0,-0.7188,-0.7188,-0.7249,-0.7249,-0.725,-0.7294,-0.7295,-0.7296,-0.7325,-0.7325,-0.7325,-0.7325,-0.7374,-0.7375,-0.7376,0,0,0,0,0,0,0,0,0,0,0,0,0,-0.7222,-0.7189,-0.7248,-0.727,-0.7272,-0.7294,-0.7295,-0.7296,-0.7325,-0.7325,-0.7325,-0.7325,-0.7373,-0.7375,-0.7376,-0.7382,0,0,-0.7382,-0.7382,0,0,0,0,0,0,0,0,-0.722,-0.7224,-0.7266,-0.7268,-0.7271,-0.7304,-0.7291,-0.7325,-0.7325,-0.7305,-0.7325,-0.7326,-0.7351,-0.7354,-0.7362,-0.7384,-0.7386,-0.7382,-0.7383,-0.7384,-0.7384,0,0,0,0,0,0,0,-0.7217,-0.7222,-0.7267,-0.7266,-0.7269,-0.7277,-0.7282,-0.7298,-0.7326,-0.7306,-0.7309,-0.7314,-0.7352,-0.7361,-0.7364,-0.7387,-0.7382,-0.7383,-0.7384,-0.7385,-0.7416,-0.7415,0,0,0,0,0,0,-0.7211,-0.722,-0.7265,-0.7268,-0.7245,-0.7278,-0.7284,-0.7293,-0.7326,-0.7331,-0.7313,-0.7315,-0.7358,-0.7362,-0.7365,-0.7374,-0.7384,-0.7385,-0.7386,-0.7416,-0.7416,-0.7415,0,0,0,0,0,0,-0.721,-0.7215,-0.7263,-0.7245,-0.7251,-0.7279,-0.7289,-0.7294,-0.7303,-0.7331,-0.7336,-0.7317,-0.7358,-0.7363,-0.7377,-0.7376,-0.7386,-0.7387,-0.7416,-0.7416,-0.7415,-0.739,0,0,0,0,0,0,-0.7208,-0.7215,-0.7217,-0.7245,-0.7252,-0.7274,-0.7289,-0.7295,-0.7305,-0.7308,-0.7335,-0.734,-0.7358,-0.7375,-0.7379,-0.7378,-0.7389,-0.7416,-0.7416,-0.7416,-0.7391,-0.7389,-0.7387,0,0,0,0,0,-0.7206,-0.7208,-0.7216,-0.7222,-0.7255,-0.7274,-0.7278,-0.7299,-0.7305,-0.7307,-0.7326,-0.734,-0.7375,-0.7376,-0.7381,-0.7381,-0.7416,-0.7416,-0.7416,-0.7392,-0.7389,-0.7387,0,0,0,0,0,0,-0.718,-0.7212,-0.7222,-0.7233,-0.725,-0.7279,-0.7282,-0.7295,-0.7312,-0.7313,-0.7338,-0.7344,-0.7356,-0.737,-0.737,-0.7388,-0.7398,-0.7398,-0.7378,-0.7376,-0.7373,-0.737,-0.739,0,0,0,0,0,-0.7175,-0.7187,-0.7215,-0.7222,-0.723,-0.7255,-0.7264,-0.7278,-0.7297,-0.7305,-0.7324,-0.7343,-0.7358,-0.7368,-0.7384,-0.7394,-0.74,-0.7396,-0.7394,-0.7392,-0.7392,-0.7398,-0.7396,-0.7414,-0.7414,-0.7414,0,0,-0.7166,-0.7185,-0.7191,-0.7217,-0.7233,-0.7245,-0.7261,-0.7273,-0.7282,-0.7307,-0.7321,-0.7336,-0.7359,-0.737,-0.7377,-0.7383,-0.7389,-0.7391,-0.739,-0.7391,-0.7397,-0.7396,-0.7394,-0.7413,-0.7413,-0.7414,0,0,-0.7156,-0.7171,-0.7179,-0.7193,-0.7216,-0.7232,-0.7234,-0.726,-0.7271,-0.7285,-0.7304,-0.7316,-0.7342,-0.7357,-0.7368,-0.7363,-0.7376,-0.7368,-0.7357,-0.7362,-0.7361,-0.736,-0.7357,-0.7356,-0.7368,-0.7368,-0.7368,0,-0.7141,-0.716,-0.7181,-0.7192,-0.7203,-0.7225,-0.7233,-0.7246,-0.7273,-0.728,-0.7286,-0.7319,-0.7336,-0.7351,-0.735,-0.7359,-0.7361,-0.7364,-0.7359,-0.7358,-0.7358,-0.7356,-0.7355,-0.7366,-0.7367,-0.7367,-0.7367,0,-0.7141,-0.7154,-0.7157,-0.7181,-0.7193,-0.7202,-0.7225,-0.7234,-0.7247,-0.7263,-0.7278,-0.7299,-0.7319,-0.7324,-0.7337,-0.7341,-0.7344,-0.7354,-0.7365,-0.7354,-0.7353,-0.7352,-0.7365,-0.7365,-0.7365,-0.7366,0,0,-0.7115,-0.7151,-0.7151,-0.7162,-0.7189,-0.7199,-0.721,-0.7229,-0.7236,-0.7254,-0.7263,-0.7285,-0.7294,-0.7307,-0.7322,-0.7327,-0.7321,-0.7337,-0.7338,-0.7333,-0.7327,-0.7318,-0.7317,-0.733,-0.733,-0.733,-0.7325,0,-0.7108,-0.7127,-0.7146,-0.7158,-0.717,-0.7191,-0.72,-0.7218,-0.7233,-0.7245,-0.7262,-0.7277,-0.7289,-0.7296,-0.7302,-0.732,-0.732,-0.7321,-0.734,-0.734,-0.7332,-0.7316,-0.7308,-0.7301,-0.7324,-0.7324,-0.7324,0,-0.7102,-0.7118,-0.713,-0.7155,-0.7161,-0.7169,-0.7188,-0.7199,-0.722,-0.723,-0.7244,-0.726,-0.7273,-0.7282,-0.73,-0.73,-0.7309,-0.7319,-0.7319,-0.7321,-0.7331,-0.7317,-0.7299,-0.7298,-0.7324,-0.7324,-0.7324,0,-0.708,-0.7105,-0.7116,-0.7125,-0.7154,-0.7159,-0.7172,-0.7192,-0.7203,-0.7219,-0.7226,-0.7245,-0.7255,-0.7269,-0.729,-0.7295,-0.7305,-0.7316,-0.7314,-0.7314,-0.7315,-0.7314,-0.7298,-0.7322,-0.7322,-0.7322,-0.7322,0,-0.707,-0.7077,-0.7107,-0.7113,-0.7122,-0.7144,-0.7152,-0.7167,-0.7185,-0.7195,-0.7216,-0.7225,-0.7252,-0.7265,-0.7282,-0.7293,-0.7298,-0.7307,-0.7311,-0.7305,-0.7303,-0.731,-0.7311,-0.7322,-0.7322,-0.7322,-0.7322,0,-0.7047,-0.7068,-0.7081,-0.7107,-0.7114,-0.7119,-0.7142,-0.715,-0.7166,-0.7178,-0.7183,-0.7208,-0.7224,-0.7247,-0.727,-0.7281,-0.729,-0.7298,-0.7283,-0.7285,-0.7282,-0.7282,-0.7268,-0.7267,-0.7293,-0.7292,-0.7292,0,-0.7039,-0.7044,-0.7071,-0.7079,-0.7091,-0.7103,-0.7113,-0.7136,-0.7146,-0.7169,-0.7174,-0.7191,-0.7206,-0.7231,-0.7252,-0.727,-0.7278,-0.7272,-0.728,-0.7273,-0.7277,-0.7276,-0.7276,-0.7269,-0.7269,-0.7268,-0.7268,0,-0.7021,-0.7031,-0.7044,-0.7061,-0.7072,-0.7087,-0.7103,-0.7108,-0.7134,-0.7145,-0.7161,-0.7172,-0.7196,-0.7213,-0.7233,-0.7247,-0.7262,-0.7265,-0.7266,-0.7259,-0.725,-0.7254,-0.7276,-0.7265,-0.7266,-0.7266,-0.7266,-0.7266,-0.7005,-0.7011,-0.703,-0.7044,-0.7058,-0.7072,-0.708,-0.7097,-0.7111,-0.7131,-0.7144,-0.7159,-0.718,-0.7209,-0.7222,-0.7235,-0.7241,-0.7242,-0.7242,-0.7241,-0.7239,-0.7248,-0.7239,-0.7239,-0.7239,-0.7239,-0.7239,0,-0.6988,-0.7001,-0.7014,-0.7035,-0.7046,-0.7058,-0.7077,-0.7085,-0.7098,-0.7116,-0.713,-0.7148,-0.7165,-0.7187,-0.7206,-0.7212,-0.7219,-0.7216,-0.7215,-0.7218,-0.7233,-0.723,-0.7209,-0.7209,-0.7209,-0.7209,-0.7209,-0.7209,-0.698,-0.699,-0.7002,-0.7019,-0.7033,-0.7048,-0.7057,-0.707,-0.7084,-0.7103,-0.7117,-0.7131,-0.7151,-0.7171,-0.7186,-0.7193,-0.7198,-0.7193,-0.7201,-0.7214,-0.7217,-0.7219,-0.7217,-0.7194,-0.7194,-0.7185,-0.7185,-0.7185]},{"header":{"parameterUnit":"m.s-1","parameterCategory":1,"la1":30.2991,"la2":30.254,"lo1":-89.0895,"lo2":-89.0444,"dx":0.0017,"dy":0.0017,"nx":28,"ny":28,"refTime":"2022-12-02T09:00:00:Z","depth":0,"parameterNumber":3,"parameterNumberName":"V-component_of_WINDS"},"data":[0,0,0,0,0,0,0,0,0,0,0,0,0,0,0,0,0,0,0,0,0,0,0,0,0,0,0,0,0,0,0,0,0,0,0,0,0,0,0,0,0,0,0,0,0,0,0,0,0,0,0,0,0,0,0,0,0,0,1.9685,1.9686,0,1.9769,1.977,1.9771,1.9792,1.9791,1.9791,1.979,1.9875,1.9878,1.988,0,0,0,0,0,0,0,0,0,0,0,0,0,1.9542,1.9544,1.9685,1.9686,1.9687,1.9769,1.977,1.9771,1.9792,1.9791,1.979,1.979,1.9874,1.9877,1.9881,0,0,0,0,0,0,0,0,0,0,0,0,0,1.9613,1.9545,1.9685,1.9707,1.971,1.9769,1.977,1.9771,1.9792,1.9791,1.979,1.9789,1.9873,1.9877,1.9881,1.9923,0,0,1.9894,1.9896,0,0,0,0,0,0,0,0,1.9609,1.9618,1.9703,1.9706,1.9709,1.9769,1.9751,1.9822,1.9792,1.9761,1.979,1.9789,1.984,1.9847,1.9865,1.9927,1.9931,1.9894,1.9897,1.9899,1.99,0,0,0,0,0,0,0,1.9604,1.9614,1.9718,1.9704,1.9708,1.9713,1.9722,1.9764,1.9804,1.9763,1.9765,1.9775,1.9842,1.9861,1.9867,1.9932,1.9894,1.9898,1.99,1.9902,2.0033,2.0034,0,0,0,0,0,0,1.9595,1.961,1.9716,1.9721,1.9656,1.9716,1.9726,1.9751,1.9804,1.9811,1.9775,1.9775,1.9854,1.9862,1.987,1.9923,1.9898,1.9902,1.9905,2.0032,2.0034,2.0035,0,0,0,0,0,0,1.9592,1.9604,1.9712,1.9666,1.968,1.9719,1.9747,1.9753,1.9772,1.9813,1.982,1.9787,1.9854,1.9864,1.991,1.9926,1.9904,1.9908,2.0031,2.0033,2.0034,2.003,0,0,0,0,0,0,1.9588,1.9603,1.962,1.9666,1.9683,1.9751,1.9748,1.9755,1.9779,1.978,1.9826,1.9833,1.9854,1.9904,1.9914,1.9932,1.9911,2.003,2.0032,2.0034,2.0029,2.0031,2.0033,0,0,0,0,0,1.9582,1.9615,1.962,1.9633,1.9704,1.9752,1.9761,1.9785,1.978,1.9797,1.9823,1.9831,1.9923,1.9908,1.992,1.9939,2.0029,2.0031,2.0034,2.0028,2.0031,2.0033,0,0,0,0,0,0,1.9569,1.9621,1.9628,1.9677,1.971,1.9756,1.9778,1.9787,1.9823,1.9822,1.985,1.986,1.9904,1.9926,1.9909,1.9983,1.9976,1.998,1.9967,1.997,1.9972,1.9967,1.9915,0,0,0,0,0,1.9572,1.9606,1.965,1.9689,1.9705,1.9738,1.976,1.9776,1.9811,1.9825,1.9855,1.9889,1.9925,1.9949,1.9984,2.0031,2.0042,2.005,2.0052,2.0054,2.0058,2.0085,2.009,2.0042,2.0042,2.0042,0,0,1.9578,1.961,1.9631,1.9687,1.9714,1.975,1.975,1.9787,1.9814,1.9831,1.9876,1.9899,1.9939,1.9986,2.0008,2.0005,2.0074,2.0057,2.0058,2.0061,2.0088,2.0093,2.0097,2.0044,2.0043,2.0043,0,0,1.9607,1.9635,1.967,1.9698,1.974,1.9762,1.977,1.9814,1.983,1.9876,1.989,1.9921,1.9983,2.0011,2.0033,2.0072,2.0081,2.0083,2.0095,2.0121,2.0125,2.0128,2.0143,2.0148,2.0087,2.0087,2.0087,0,1.9609,1.9663,1.9687,1.9724,1.9749,1.9765,1.9801,1.9827,1.9878,1.9894,1.9891,1.9969,1.9997,2.0051,2.006,2.0077,2.0088,2.0079,2.0122,2.0126,2.013,2.0144,2.0149,2.0087,2.0087,2.0087,2.0087,0,1.9664,1.9702,1.9725,1.9775,1.9801,1.9838,1.9867,1.9891,1.9904,1.9926,1.9972,2.0006,2.0049,2.0063,2.0075,2.0119,2.0116,2.0117,2.011,2.0134,2.0148,2.0154,2.0087,2.0087,2.0087,2.0087,0,0,1.9689,1.9751,1.9759,1.9782,1.9829,1.9858,1.9895,1.9937,1.9958,1.9992,2.0024,2.0075,2.0077,2.0102,2.0117,2.014,2.017,2.0138,2.014,2.0144,2.022,2.022,2.0226,2.0175,2.0176,2.0177,2.0217,0,1.9725,1.9793,1.9815,1.987,1.9905,1.9921,1.9953,1.9985,2.0006,2.0039,2.0062,2.0099,2.0097,2.0112,2.0135,2.0161,2.0186,2.0158,2.0206,2.0207,2.0197,2.0234,2.0234,2.027,2.0223,2.0224,2.0225,0,1.9777,1.9813,1.9872,1.9914,1.993,1.9958,1.9999,2.0029,2.0066,2.008,2.0108,2.0121,2.016,2.015,2.0204,2.0185,2.0206,2.0221,2.0223,2.023,2.0218,2.0242,2.0283,2.0289,2.0233,2.0233,2.0232,0,1.9791,1.9853,1.9897,1.9915,1.9966,1.9986,2.0007,2.0043,2.0067,2.0102,2.0118,2.0157,2.0178,2.0208,2.0232,2.0222,2.0284,2.0276,2.0297,2.0297,2.0311,2.031,2.0356,2.0321,2.0321,2.0321,2.0321,0,1.983,1.9866,1.9904,1.9931,1.9971,1.9996,2.0035,2.0058,2.0089,2.0121,2.0136,2.0165,2.0194,2.0227,2.0245,2.0288,2.0297,2.0309,2.0314,2.0309,2.0308,2.0324,2.0323,2.0322,2.0322,2.0322,2.0322,0,1.9853,1.988,1.9929,1.9972,1.9984,2.0012,2.0049,2.0075,2.0097,2.0136,2.0147,2.0181,2.022,2.0246,2.0297,2.0309,2.0356,2.0359,2.0344,2.0346,2.0366,2.0365,2.0426,2.0436,2.0393,2.0393,2.0393,0,1.9877,1.9905,1.9952,1.9974,1.9996,2.0031,2.0056,2.0081,2.0106,2.0149,2.017,2.0211,2.0245,2.0307,2.0336,2.0374,2.038,2.0398,2.0386,2.038,2.0381,2.038,2.0383,2.0401,2.0401,2.0401,2.0402,0,1.9918,1.9929,1.9964,2.0004,2.0033,2.0065,2.0097,2.0114,2.0145,2.0172,2.0213,2.0239,2.029,2.033,2.0371,2.0393,2.0403,2.0405,2.0412,2.0408,2.0399,2.0405,2.0351,2.0404,2.0404,2.0404,2.0404,2.0403,1.9943,1.9969,2.0006,2.0044,2.0071,2.0101,2.0128,2.0152,2.0187,2.0231,2.0243,2.0285,2.0321,2.0377,2.0399,2.0433,2.0431,2.0441,2.0444,2.0446,2.0447,2.0392,2.044,2.044,2.044,2.044,2.044,0,1.9986,2.001,2.0045,2.009,2.012,2.0125,2.0161,2.0186,2.0223,2.0255,2.0288,2.0335,2.0373,2.0405,2.0445,2.0465,2.0471,2.0475,2.0475,2.048,2.0446,2.0436,2.047,2.047,2.047,2.047,2.047,2.047,2.0012,2.0056,2.0071,2.0129,2.0152,2.0195,2.0215,2.0242,2.0268,2.0319,2.0351,2.0371,2.0403,2.0445,2.0481,2.0489,2.0504,2.0508,2.0517,2.0485,2.0482,2.0479,2.047,2.051,2.051,2.0548,2.0548,2.0549]}]]